Flag for U.S.A. Weather past 2 weeks in Winder, Georgia, U.S.A.

Now
66 °F

Low clouds.


Feels Like: 66 °F
Forecast: 58 / 75 °F
Wind: 7 mph from Southwest

Location: Winder-Barrow Airport

Current Time: Apr 25, 2015 at 12:47:12 PM

Latest Report: Apr 25, 2015 at 12:15 PM


Visibility: 10 mi

Pressure: 29.82 "Hg

Humidity: 94%

Dew point: 64 °F

Location of WinderLocation

Historic Weather in Winder — Graph

°F

Winder temperature yesterday

Maximum temperature yesterday: 73 °F (at 3:15 PM)
Minimum temperature yesterday: 45 °F (at 6:55 AM)
Average temperature yesterday: 61 °F

Past Weeks' High & Low Weather Summary

 TemperatureHumidityPressure
High82 °F (Apr 14, 2:55 PM)100% (Apr 10, 12:55 PM)30.33 "Hg (Apr 10, 12:55 PM)
Low45 °F (Apr 22, 6:15 AM)24% (Apr 11, 6:15 PM)29.70 "Hg (Apr 20, 4:15 PM)
Average65 °F80%30.05 "Hg
* Reported Apr 10 11:15 AM — Apr 25 11:55 AM, Winder, Weather by CustomWeather, © 2015

Note: Actual official high and low records may vary slightly from our data, if they occured in-between our weather recording intervals... More about our weather records

Advertising

Winder weather history for previous 24 hours

 ConditionsComfort  
Time TempWeatherWind HumidityBarometerVisibility
11:55 AM
Sat, Apr 25
64 °FLow clouds.No wind94%29.82 "Hg10 mi
11:15 AM64 °FLow clouds.3 mph94%29.84 "Hg10 mi
10:55 AM64 °FLow clouds.No wind94%29.83 "Hg10 mi
10:35 AM63 °FLow clouds.No wind100%29.85 "Hg10 mi
10:15 AM63 °FLow clouds.3 mph94%29.87 "Hg10 mi
9:55 AM61 °FLow clouds.3 mph100%29.87 "Hg10 mi
9:35 AM61 °FLow clouds.No wind100%29.87 "Hg10 mi
9:15 AM59 °FRain. Mostly cloudy.8 mph100%29.82 "Hg5 mi
8:55 AM59 °FLight rain. Mostly cloudy.6 mph100%29.90 "Hg5 mi
8:35 AM57 °FHeavy rain. Cloudy.5 mph100%29.90 "Hg2 mi
8:15 AM59 °FThundershowers. More clouds than sun.No wind100%29.96 "Hg2 mi
7:55 AM59 °FRain. More clouds than sun.No wind100%29.96 "Hg3 mi
7:35 AM59 °FRain. Mostly cloudy.No wind100%29.96 "Hg5 mi
7:15 AM59 °FRain. Overcast.No wind100%29.95 "Hg4 mi
6:55 AM59 °FRain. Mostly cloudy.No wind100%29.93 "Hg10 mi
6:35 AM59 °FLight rain. Overcast.No wind100%29.90 "Hg10 mi
6:15 AM59 °FMostly cloudy.No wind100%29.92 "Hg10 mi
5:55 AM59 °FRain. Overcast.No wind100%29.89 "Hg10 mi
5:35 AM59 °FLight rain. Mostly cloudy.No wind100%29.91 "Hg10 mi
5:15 AM59 °FMostly cloudy.No wind100%29.92 "Hg10 mi
4:55 AM59 °FPassing clouds.No wind100%29.91 "Hg10 mi
4:35 AM59 °FLight rain. Mostly cloudy.No wind100%29.92 "Hg10 mi
4:15 AM59 °FRain. Mostly cloudy.No wind100%29.93 "Hg10 mi
3:55 AM59 °FLight rain. Overcast.No wind100%29.94 "Hg10 mi
3:15 AM61 °FLight rain. Overcast.No wind94%29.94 "Hg10 mi
2:55 AM63 °FRain. Partly cloudy.No wind77%29.92 "Hg10 mi
2:35 AM63 °FLight rain. Mostly cloudy.No wind77%29.93 "Hg10 mi
2:15 AM63 °FPartly cloudy.3 mph73%29.93 "Hg10 mi
1:55 AM63 °FLight rain. Passing clouds.No wind73%29.93 "Hg10 mi
1:35 AM64 °FLight rain. Passing clouds.3 mph64%29.96 "Hg10 mi
1:15 AM64 °FLight rain. Mostly cloudy.3 mph60%29.97 "Hg10 mi
12:55 AM64 °FMostly cloudy.3 mph60%29.97 "Hg10 mi
12:35 AM64 °FMostly cloudy.3 mph60%29.97 "Hg10 mi
12:15 AM64 °FMostly cloudy.No wind60%29.97 "Hg10 mi
11:15 PM
Fri, Apr 24
66 °FPassing clouds.3 mph56%29.99 "Hg10 mi
10:55 PM68 °FOvercast.3 mph49%29.99 "Hg10 mi
10:35 PM68 °FOvercast.No wind53%29.99 "Hg10 mi
10:15 PM68 °FMostly cloudy.No wind53%29.99 "Hg10 mi
9:55 PM68 °FMostly cloudy.3 mph53%29.99 "Hg10 mi
8:55 PM68 °FSunny.No wind49%29.99 "Hg10 mi
8:35 PM68 °FSunny.3 mph53%29.99 "Hg10 mi
8:15 PM70 °FSunny.No wind43%29.99 "Hg10 mi
7:35 PM72 °FSunny.No wind41%30.00 "Hg10 mi
7:15 PM72 °FSunny.No wind41%30.00 "Hg10 mi
6:55 PM73 °FSunny.No wind36%30.01 "Hg10 mi
6:35 PM73 °FSunny.No wind36%30.01 "Hg10 mi
6:15 PM73 °FSunny.No wind33%30.02 "Hg10 mi
5:15 PM73 °FSunny.No wind31%30.01 "Hg10 mi
4:55 PM73 °FSunny.No wind33%30.01 "Hg10 mi
4:35 PM73 °FSunny.No wind31%30.00 "Hg10 mi
4:15 PM73 °FSunny.No wind31%30.01 "Hg10 mi
3:55 PM73 °FSunny.3 mph29%30.02 "Hg10 mi
3:35 PM73 °FSunny.No wind33%30.03 "Hg10 mi
3:15 PM73 °FSunny.No wind29%30.04 "Hg10 mi
2:55 PM72 °FSunny.No wind31%30.05 "Hg10 mi
2:35 PM72 °FSunny.No wind33%30.05 "Hg10 mi
2:15 PM70 °FSunny.5 mph35%30.06 "Hg10 mi
1:55 PM70 °FSunny.No wind35%30.07 "Hg10 mi
1:35 PM68 °FSunny.No wind38%30.08 "Hg10 mi
1:15 PM68 °FSunny.No wind33%30.09 "Hg10 mi
12:55 PM66 °FSunny.No wind35%30.10 "Hg10 mi
12:35 PM66 °FSunny.No wind35%30.11 "Hg10 mi
12:15 PM64 °FSunny.No wind37%30.12 "Hg10 mi
Weather by CustomWeather, © 2015

See weather overviewHow to use our weather pages